KUIPER-00124

导读

KUIPER-00142是美国亚马逊柯伊伯(Project Kuiper)低轨卫星互联网项目的卫星,于2025年9月25日发射。该项目计划部署超过3000颗低轨卫星,旨在为全球尤其是偏远地区提供高速低延迟的互联网接入服务,与亚马逊云服务深度整合,实现云+通信+边缘计算一体化网络,是亚马逊布局太空基础设施的重要组成部分。

基本信息
目录编号:
65766
目录名称:
KUIPER-00142
国际标识:
2025-217E
轨道中心:
EARTH
卫星名称:
KUIPER-00142
卫星全名:
KUIPER-00124
卫星状态:
在轨 (已飞行305 天)
发射日期:
2025-09-25 UTC
国别 :
美国 (US)
星等 :
--
轨道信息
数据来源 国际轨道数据
星历时间: 2026-07-27T12:59:30+0800
17小时前
查看轨道信息
半长轴: 7007.678km
偏心率: 0.0000707
轨道倾角: 51.898°
近地点辐角 97.575°
升交点赤经 138.631°
平近点角 262.529°
近地点: 629.045km
远地点: 630.037km
周期: 97.302分钟
每日圈数: 14.799314
详细信息
使用方式:
暂无
2D轨道图
3D轨道图
轨道高度分析图
轨道倾角分析图
轨道综合分析图
查看轨道综合分析图